Weather History for Scottsbluff, NE

Change the Weather History Date:

Wednesday, June 5, 2013

  Actual Average Record
Temperature  
Mean Temperature 58 °F 64 °F  
Max Temperature 72 °F 78 °F 98 °F (1969)
Min Temperature 43 °F 50 °F 36 °F (1970)
Degree Days  
Heating Degree Days 7 3  
Month to date heating degree days 20 19  
Since 1 June heating degree days 20 19  
Since 1 July heating degree days 6305 6574  
Cooling Degree Days 0 2  
Month to date cooling degree days 5 10  
Year to date cooling degree days 59 33  
Since 1 June cooling degree days 5 10  
Growing Degree Days 8 (Base 50)    
Moisture  
Dew Point 39 °F    
Average Humidity 57    
Maximum Humidity 86    
Minimum Humidity 28    
Precipitation  
Precipitation 0.00 in 0.11 in 0.93 in (1940)
Month to date precipitation 0.06 0.56  
Year to date precipitation 4.70 6.88  
Snow  
Snow 0.00 in 0.00 in - ()
Month to date snowfall 0.0 0.0  
Since 1 July snowfall 43.9 42.1  
Snow Depth 0.00 in    
Sea Level Pressure  
Sea Level Pressure 30.11 in    
Wind  
Wind Speed 9 mph (NNW)    
Max Wind Speed 16 mph    
Max Gust Speed 22 mph    
Visibility 10 miles    
Events      
T = Trace of Precipitation, MM = Missing Value Source: NWS Daily Summary

Daily Weather History Graph

Daily Weather History Graph

Search for Another Location

Airport:

Trip Planner

Search our weather history database for the weather conditions in past years. The results will help you decide how hot, cold, wet, or windy it might be!

Date:

Astronomy

Jun. 05, 2013 Rise Set
Actual Time 5:20 AM MDT 8:26 PM MDT
Civil Twilight 4:46 AM MDT 9:00 PM MDT
Nautical Twilight 4:03 AM MDT 9:43 PM MDT
Astronomical Twilight 3:11 AM MDT 10:35 PM MDT
Moon 3:27 AM MDT (6/5) 5:53 PM MDT (6/5)
Length of Visible Light 16h 13m
Length of Day
15h 06m
Waning Crescent, 8% of the Moon is Illuminated
Jun 5
Waning Crescent
Jun 8
New
Jun 16
First Quarter
Jun 23
Full
Jun 29
Last Quarter

Hourly Weather History & Observations

Time (MDT) Temp. Windchill Dew Point Humidity Pressure Visibility Wind Dir Wind Speed Gust Speed Precip Events Conditions
12:53 AM 50.0 °F - 46.0 °F 86% 30.14 in 10.0 mi NW 5.8 mph - N/A   Overcast
1:53 AM 48.9 °F - 41.0 °F 74% 30.14 in 10.0 mi NNW 10.4 mph - N/A   Overcast
2:53 AM 46.9 °F - 39.0 °F 74% 30.14 in 10.0 mi NNW 9.2 mph - N/A   Overcast
3:53 AM 45.0 °F 41.2 °F 37.9 °F 76% 30.14 in 10.0 mi WNW 6.9 mph - N/A   Overcast
4:53 AM 44.1 °F 40.1 °F 37.9 °F 79% 30.17 in 10.0 mi West 6.9 mph - N/A   Partly Cloudy
5:53 AM 44.1 °F 41.5 °F 37.9 °F 79% 30.18 in 10.0 mi WNW 4.6 mph - N/A   Overcast
6:53 AM 46.0 °F 42.5 °F 39.0 °F 76% 30.20 in 10.0 mi NW 6.9 mph - N/A   Overcast
7:53 AM 48.9 °F - 39.0 °F 69% 30.19 in 10.0 mi NW 10.4 mph - N/A   Overcast
8:53 AM 52.0 °F - 37.9 °F 59% 30.19 in 10.0 mi WNW 10.4 mph - N/A   Mostly Cloudy
9:53 AM 55.0 °F - 39.0 °F 55% 30.18 in 10.0 mi NNW 9.2 mph 16.1 mph N/A   Mostly Cloudy
10:53 AM 57.0 °F - 36.0 °F 45% 30.17 in 10.0 mi NW 10.4 mph 17.3 mph N/A   Overcast
11:53 AM 62.1 °F - 36.0 °F 38% 30.12 in 10.0 mi WNW 11.5 mph 19.6 mph N/A   Clear
12:53 PM 64.0 °F - 37.9 °F 38% 30.10 in 10.0 mi North 8.1 mph - N/A   Clear
1:53 PM 66.0 °F - 36.0 °F 33% 30.07 in 10.0 mi NW 9.2 mph 16.1 mph N/A   Clear
2:53 PM 68.0 °F - 36.0 °F 31% 30.05 in 10.0 mi WNW 10.4 mph - N/A   Clear
3:53 PM 70.0 °F - 36.0 °F 29% 30.04 in 10.0 mi NW 8.1 mph 20.7 mph N/A   Clear
4:53 PM 70.0 °F - 36.0 °F 29% 30.04 in 10.0 mi North 10.4 mph 18.4 mph N/A   Scattered Clouds
5:53 PM 69.1 °F - 37.9 °F 32% 30.03 in 10.0 mi ENE 8.1 mph 16.1 mph N/A   Partly Cloudy
6:53 PM 66.9 °F - 37.9 °F 34% 30.04 in 10.0 mi NE 9.2 mph - N/A   Partly Cloudy
7:53 PM 64.0 °F - 39.0 °F 40% 30.05 in 10.0 mi ENE 9.2 mph - N/A   Overcast
8:53 PM 57.9 °F - 39.0 °F 49% 30.08 in 10.0 mi East 6.9 mph - N/A   Scattered Clouds
9:53 PM 55.0 °F - 41.0 °F 59% 30.10 in 10.0 mi East 9.2 mph - N/A   Clear
10:53 PM 52.0 °F - 41.0 °F 66% 30.10 in 10.0 mi East 8.1 mph - N/A   Clear
11:53 PM 48.9 °F - 41.0 °F 74% 30.09 in 10.0 mi East 6.9 mph - N/A   Clear